Regional Weather Roundup
Issued by NWS

Home | Current Version | Previous Version | Text Only | Print | Product List | Glossary On
Versions: 1 2 3 4 5 6 7 8 9 10 11 12 13 14 15 16 17 18 19 20 21 22 23 24 25 26 27 28 29 30 31 32 33 34 35 36 37 38 39 40 41 42 43 44 45 46 47 48 49 50
147
ASUS44 KFWD 250203
RWRTX
NORTH TEXAS HOURLY WEATHER ROUNDUP
NATIONAL WEATHER SERVICE FORT WORTH TX
900 PM CDT FRI MAR 24 2017

NOTE: "FAIR" INDICATES FEW OR NO CLOUDS BELOW 12,000 FEET WITH NO
SIGNIFICANT WEATHER AND/OR OBSTRUCTIONS TO VISIBILITY.

TXZ118-119-250300-
DALLAS/FORT WORTH METROPLEX

CITY           SKY/WX    TMP DP  RH WIND       PRES   REMARKS
DFW AIRPORT    PTCLDY    74  35  24 SW13      29.76R
DALLAS LOVE    PTCLDY    70  56  61 S9        29.78R
FTW MEACHAM    CLEAR     73  33  23 SW8       29.78R
DAL-EXECUTIVE  CLEAR     69  58  67 S6        29.79R
FTW-ALLIANCE   CLOUDY    74  37  26 W10       29.80R
FTW-NAS-JRB    PTCLDY    74  34  23 SW13      29.79R
FTW-SPINKS     CLEAR     71  34  25 S10       29.82R
ARLINGTON      CLEAR     74  33  22 S9G16     29.79S
GRAND PRAIRIE  CLEAR     73  34  23 S9        29.80S
ADDISON        PTCLDY    72  54  53 S8        29.77S
MESQUITE       CLEAR     66  53  61 S9        29.81R
LANCASTER      CLEAR     67  55  67 S12       29.82R
$$

TXZ091>094-102>105-117-120-121-131>134-250300-
NORTH CENTRAL TEXAS

CITY           SKY/WX    TMP DP  RH WIND       PRES   REMARKS
SHRMAN/DENISON MOCLDY    66  54  65 SW6       29.78R
GAINESVILLE    CLOUDY    70  37  30 W15G25    29.80R
BOWIE          PTCLDY    67  38  34 W7        29.80S
BRIDGEPORT     CLOUDY    71  37  28 W15G24    29.83R
DECATUR        CLOUDY    71  38  30 W10G16    29.81R
DENTON         CLOUDY    72  40  31 W13       29.78R
MCKINNEY       CLEAR     65  54  67 S12       29.76S
BONHAM         CLEAR     64  55  72 S13       29.76S
ROCKWALL       CLEAR     67  54  61 S10       29.80R
TERRELL        CLEAR     68  64  87 S13       29.81R
WAXAHACHIE     CLEAR     65  57  77 S9        29.82S
CLEBURNE       CLEAR     72  34  25 SW10      29.83S
GRANBURY       PTCLDY    73  35  25 S8        29.82R
$$

TXZ083>090-098>101-113>116-127>130-139>142-154-155-250300-
WESTERN NORTH TEXAS

CITY           SKY/WX    TMP DP  RH WIND       PRES   REMARKS
WICHITA FALLS  PTCLDY    65  40  39 W28G38    29.78R
WF-KICKAPOO    CLEAR     66  40  39 W23G39    29.82R
VERNON         CLOUDY    63  37  37 NW24G36   29.85R
ABILENE        CLEAR     66  34  30 NW17G26   29.91R
ABILENE-DYESS  CLEAR     67  36  31 NW15      29.91R
GRAHAM         CLEAR     68  38  33 W17G24    29.83R
BRECKENRIDGE   CLEAR     69  36  29 NW13G18   29.87R
CISCO          MOCLDY    70  34  26 NW13      29.88R
RANGER         PTCLDY    70  34  26 NW10G16   29.87R
MINERAL WELLS  CLOUDY    72  35  25 NW15G22   29.82R
STEPHENVILLE   CLEAR     68  33  27 SW5       29.87R
COMANCHE       PTCLDY    68  37  32 SW7       29.87R
BROWNWOOD      MOCLDY    66  37  34 SW6       29.89R
COLEMAN        CLEAR     69  34  27 W6        29.90R
$$

TXZ143>147-156>162-174-175-250300-
CENTRAL TEXAS

CITY           SKY/WX    TMP DP  RH WIND       PRES   REMARKS
WACO           CLEAR     67  55  65 SW3       29.86R
WACO-TSTC      CLEAR     68  66  94 S9        29.85R
WACO-MCGREGOR  CLEAR     67  55  65 SW6G16    29.87R
HILLSBORO      CLEAR     63  53  70 S7        29.84S
CORSICANA      CLEAR     69  66  90 S16       29.85R
MEXIA          CLEAR     67  66  97 S14       29.85S
HEARNE         PTCLDY    69  67  93 SE9       29.89R
CAMERON        CLEAR     70  66  89 S13       29.88R
TEMPLE         CLEAR     69  51  52 S7        29.87R
KILLEEN        CLEAR     71  33  24 W7        29.88R
KILLEEN-SKYLRK CLEAR     72  38  29 W7        29.88R
FORT HOOD      CLEAR     71  35  26 W8        29.86R
GATESVILLE     CLEAR     68  37  32 SW6       29.90R
HAMILTON       CLEAR     64  38  38 SW8       29.88R
LAMPASAS       CLEAR     65  38  36 W5        29.89R
$$

TXZ095>097-106>112-122>126-135>138-148>153-164>167-250300-
EAST TEXAS

CITY           SKY/WX    TMP DP  RH WIND       PRES   REMARKS
PARIS          MOCLDY    64  61  88 S13       29.80S
SULPHUR SPRNGS CLOUDY    67  65  93 S14       29.82S
MOUNT PLEASANT PTCLDY    64  63  97 S23G33    29.82F
GILMER         CLOUDY    62  61  95 S3        29.86R
MINEOLA        PTCLDY    66  64  94 S9G20     29.83R
TYLER          CLEAR     67  65  93 S18G24    29.85R
LONGVIEW       CLOUDY    64  60  87 SW13      29.87R FOG
MARSHALL         N/A    N/A N/A N/A MISG        N/A
ATHENS         CLEAR     66  66 100 S10G21    29.84S
PALESTINE      MOCLDY    68  65  92 CALM      29.89R
JACKSONVILLE   DRIZZLE   66  65  97 S12G17    29.89R
HENDERSON      CLOUDY    65  65 100 S8G16     29.89R
CENTER         LGT RAIN  74  68  82 S12G22    29.90S
NACOGDOCHES    CLOUDY    72  63  73 S21       29.87S
LUFKIN         CLOUDY    71  65  81 S15G24    29.90S THUNDER
$$

SUPPLEMENTAL OBSERVATIONS (CENTRAL)

CITY           SKY/WX    TMP DP  RH WIND       PRES   REMARKS
$$

SUPPLEMENTAL OBSERVATIONS (WEST)

CITY           SKY/WX    TMP DP  RH WIND       PRES   REMARKS
$$

SUPPLEMENTAL OBSERVATIONS (EAST)

CITY           SKY/WX    TMP DP  RH WIND       PRES   REMARKS
$$

SUPPLEMENTAL OBSERVATIONS ARE A COLLECTION OF AUTOMATED INSTRUMENTS
THAT ARE MAINTAINED BY A VARIETY OF FEDERAL AND STATE AGENCIES.
CERTAIN ELEMENTS...SUCH AS HUMIDITY VALUES AND SUSTAINED WIND
SPEEDS...MAY BE APPROXIMATED.





USA.gov is the U.S. government's official web portal to all federal, state and local government web resources and services.